DAL3085 KVPS-KATL

Flight info

Callsign DAL3085
Flight time 0h 43m
Altitude 25000
Route ENNTT HOBTT3
Aircraft B739/M-SADE2E3GHIJ4RWXZ/LB1

Departure

Time 2026-04-12 11:05
Airport Destin-Fort Walton Beach Airport (KVPS)

Arrival

Time 2026-04-12 11:49
Airport Hartsfield Jackson Atlanta International Airport (KATL)
Time Latitude Longitude Altitude Speed Heading
2026-04-12 09:44 30.49511 -86.54899 93 ft 0 kts 273°
2026-04-12 10:57 30.49511 -86.54891 92 ft 2 kts 272°
2026-04-12 10:57 30.49510 -86.54869 92 ft 2 kts 271°
2026-04-12 10:57 30.49510 -86.54854 92 ft 3 kts 290°
2026-04-12 10:57 30.49502 -86.54843 92 ft 3 kts 345°
2026-04-12 10:58 30.49484 -86.54839 92 ft 2 kts 349°
2026-04-12 10:58 30.49469 -86.54836 92 ft 3 kts 349°
2026-04-12 10:58 30.49449 -86.54831 92 ft 3 kts 359°
2026-04-12 10:58 30.49430 -86.54834 92 ft 3 kts
2026-04-12 10:59 30.49419 -86.54836 92 ft 0 kts
2026-04-12 11:01 30.49426 -86.54841 92 ft 1 kts 297°
2026-04-12 11:01 30.49419 -86.54853 92 ft 4 kts 217°
2026-04-12 11:02 30.49375 -86.54844 92 ft 10 kts 170°
2026-04-12 11:02 30.49316 -86.54881 92 ft 13 kts 269°
2026-04-12 11:02 30.49307 -86.54966 92 ft 6 kts 204°
2026-04-12 11:02 30.49260 -86.54974 92 ft 11 kts 187°
2026-04-12 11:03 30.49186 -86.54994 92 ft 11 kts 205°
2026-04-12 11:03 30.49122 -86.55032 92 ft 10 kts 207°
2026-04-12 11:03 30.49056 -86.55072 92 ft 12 kts 207°
2026-04-12 11:03 30.48992 -86.55113 92 ft 9 kts 210°
2026-04-12 11:04 30.48940 -86.55148 92 ft 9 kts 210°
2026-04-12 11:04 30.48889 -86.55182 92 ft 8 kts 210°
2026-04-12 11:04 30.48851 -86.55169 92 ft 5 kts 115°
2026-04-12 11:04 30.48807 -86.55075 92 ft 34 kts 119°
2026-04-12 11:05 30.48584 -86.54625 92 ft 95 kts 120°
2026-04-12 11:05 30.48163 -86.53771 92 ft 148 kts 120°
2026-04-12 11:05 30.47583 -86.52596 204 ft 183 kts 119°
2026-04-12 11:05 30.46960 -86.51366 1100 ft 172 kts 120°
2026-04-12 11:06 30.46334 -86.50151 1751 ft 183 kts 120°
2026-04-12 11:06 30.45645 -86.48835 2286 ft 199 kts 121°
2026-04-12 11:06 30.44892 -86.47431 2877 ft 217 kts 120°
2026-04-12 11:06 30.44100 -86.45812 3390 ft 238 kts 112°
2026-04-12 11:07 30.43894 -86.43958 4375 ft 238 kts 80°
2026-04-12 11:07 30.44684 -86.42186 4908 ft 264 kts 45°
2026-04-12 11:07 30.46329 -86.41195 5744 ft 276 kts 12°
2026-04-12 11:07 30.48266 -86.41165 6715 ft 282 kts 358°
2026-04-12 11:08 30.50240 -86.41199 7617 ft 285 kts
2026-04-12 11:08 30.52226 -86.41051 8517 ft 288 kts
2026-04-12 11:08 30.54206 -86.40842 9371 ft 291 kts
2026-04-12 11:08 30.56238 -86.40625 10227 ft 295 kts
2026-04-12 11:09 30.58305 -86.40420 10994 ft 302 kts
2026-04-12 11:09 30.60449 -86.40219 11481 ft 318 kts
2026-04-12 11:09 30.62733 -86.40018 11822 ft 338 kts
2026-04-12 11:09 30.65153 -86.39813 12105 ft 358 kts
2026-04-12 11:10 30.67699 -86.39604 12484 ft 373 kts
2026-04-12 11:10 30.70305 -86.39394 13109 ft 378 kts
2026-04-12 11:10 30.72919 -86.39186 13781 ft 382 kts
2026-04-12 11:10 30.75583 -86.38976 14442 ft 386 kts
2026-04-12 11:11 30.78281 -86.38765 15055 ft 390 kts
2026-04-12 11:11 30.81002 -86.38553 15689 ft 394 kts
2026-04-12 11:11 30.83751 -86.38340 16316 ft 397 kts
2026-04-12 11:11 30.86516 -86.38127 16899 ft 400 kts
2026-04-12 11:12 30.89314 -86.37910 17468 ft 404 kts
2026-04-12 11:12 30.92128 -86.37693 18015 ft 408 kts
2026-04-12 11:12 30.94972 -86.37473 18575 ft 410 kts
2026-04-12 11:12 30.97824 -86.37252 19115 ft 413 kts
2026-04-12 11:13 31.00703 -86.37028 19647 ft 415 kts
2026-04-12 11:13 31.03595 -86.36803 20162 ft 418 kts
2026-04-12 11:13 31.06511 -86.36577 20661 ft 421 kts
2026-04-12 11:13 31.09437 -86.36350 21153 ft 423 kts
2026-04-12 11:14 31.12387 -86.36121 21630 ft 426 kts
2026-04-12 11:14 31.15348 -86.35891 22080 ft 428 kts
2026-04-12 11:14 31.18331 -86.35659 22527 ft 431 kts
2026-04-12 11:14 31.21325 -86.35425 22959 ft 433 kts
2026-04-12 11:15 31.24340 -86.35191 23360 ft 435 kts
2026-04-12 11:15 31.27377 -86.34954 23755 ft 438 kts
2026-04-12 11:15 31.30421 -86.34716 24137 ft 440 kts
2026-04-12 11:15 31.33478 -86.34478 24555 ft 440 kts
2026-04-12 11:16 31.36537 -86.34239 24995 ft 440 kts
2026-04-12 11:16 31.39564 -86.34003 25245 ft 443 kts
2026-04-12 11:16 31.42682 -86.33760 25307 ft 443 kts
2026-04-12 11:16 31.45753 -86.33520 25318 ft 441 kts
2026-04-12 11:17 31.48771 -86.33283 25322 ft 439 kts
2026-04-12 11:17 31.51817 -86.33044 25325 ft 439 kts
2026-04-12 11:17 31.54879 -86.32803 25327 ft 439 kts
2026-04-12 11:17 31.57931 -86.32563 25326 ft 440 kts
2026-04-12 11:18 31.60981 -86.32323 25326 ft 439 kts
2026-04-12 11:18 31.64031 -86.32082 25327 ft 439 kts
2026-04-12 11:18 31.67060 -86.31537 25325 ft 443 kts 11°
2026-04-12 11:18 31.69987 -86.30375 25325 ft 446 kts 21°
2026-04-12 11:19 31.72750 -86.28677 25326 ft 449 kts 28°
2026-04-12 11:19 31.75372 -86.26685 25327 ft 450 kts 32°
2026-04-12 11:19 31.77929 -86.24568 25329 ft 450 kts 33°
2026-04-12 11:19 31.80481 -86.22438 25331 ft 450 kts 32°
2026-04-12 11:20 31.83051 -86.20319 25333 ft 450 kts 32°
2026-04-12 11:20 31.85618 -86.18218 25335 ft 450 kts 32°
2026-04-12 11:20 31.88195 -86.16116 25337 ft 450 kts 32°
2026-04-12 11:20 31.90739 -86.14046 25338 ft 450 kts 32°
2026-04-12 11:21 31.93317 -86.11949 25338 ft 450 kts 32°
2026-04-12 11:21 31.95895 -86.09853 25338 ft 450 kts 32°
2026-04-12 11:21 31.98477 -86.07764 25338 ft 450 kts 32°
2026-04-12 11:21 32.01065 -86.05676 25338 ft 450 kts 32°
2026-04-12 11:22 32.03647 -86.03585 25337 ft 450 kts 32°
2026-04-12 11:22 32.06224 -86.01494 25337 ft 450 kts 32°
2026-04-12 11:22 32.08805 -85.99396 25337 ft 450 kts 32°
2026-04-12 11:22 32.11388 -85.97304 25337 ft 450 kts 32°
2026-04-12 11:23 32.13936 -85.95240 25335 ft 450 kts 32°
2026-04-12 11:23 32.16514 -85.93141 25331 ft 450 kts 32°
2026-04-12 11:23 32.19091 -85.91036 25329 ft 450 kts 32°
2026-04-12 11:23 32.21664 -85.88931 25331 ft 450 kts 32°
2026-04-12 11:24 32.24240 -85.86822 25331 ft 450 kts 32°
2026-04-12 11:24 32.26816 -85.84711 25331 ft 450 kts 32°
2026-04-12 11:24 32.29389 -85.82602 25332 ft 450 kts 32°
2026-04-12 11:24 32.31961 -85.80493 25333 ft 450 kts 32°
2026-04-12 11:25 32.34530 -85.78387 25334 ft 450 kts 32°
2026-04-12 11:25 32.37106 -85.76270 25337 ft 450 kts 32°
2026-04-12 11:25 32.39679 -85.74157 25340 ft 450 kts 32°
2026-04-12 11:25 32.42249 -85.72043 25339 ft 449 kts 32°
2026-04-12 11:26 32.44785 -85.69955 25337 ft 449 kts 32°
2026-04-12 11:26 32.47379 -85.67817 25335 ft 449 kts 32°
2026-04-12 11:26 32.49947 -85.65697 25337 ft 449 kts 32°
2026-04-12 11:26 32.52487 -85.63600 25339 ft 449 kts 32°
2026-04-12 11:27 32.55047 -85.61484 25341 ft 449 kts 32°
2026-04-12 11:27 32.57612 -85.59362 25343 ft 449 kts 32°
2026-04-12 11:27 32.60175 -85.57241 25345 ft 449 kts 32°
2026-04-12 11:27 32.62741 -85.55117 25347 ft 449 kts 32°
2026-04-12 11:28 32.64467 -85.53686 25348 ft 449 kts 32°
2026-04-12 11:28 32.67009 -85.51598 25350 ft 450 kts 32°
2026-04-12 11:28 32.69581 -85.49480 25349 ft 449 kts 32°
2026-04-12 11:28 32.72145 -85.47362 25349 ft 449 kts 32°
2026-04-12 11:29 32.74706 -85.45241 25349 ft 448 kts 32°
2026-04-12 11:29 32.77252 -85.43142 25348 ft 444 kts 32°
2026-04-12 11:29 32.79787 -85.41048 25348 ft 441 kts 32°
2026-04-12 11:29 32.82299 -85.38963 25349 ft 440 kts 32°
2026-04-12 11:30 32.84810 -85.36873 25348 ft 440 kts 32°
2026-04-12 11:30 32.87300 -85.34797 25051 ft 431 kts 32°
2026-04-12 11:30 32.89694 -85.32798 24616 ft 423 kts 32°
2026-04-12 11:30 32.92105 -85.30785 23993 ft 421 kts 32°
2026-04-12 11:31 32.94528 -85.28759 23380 ft 419 kts 32°
2026-04-12 11:31 32.96904 -85.26774 22783 ft 417 kts 33°
2026-04-12 11:31 32.99240 -85.24821 22199 ft 414 kts 33°
2026-04-12 11:31 33.01557 -85.22793 21612 ft 413 kts 37°
2026-04-12 11:32 33.03706 -85.20527 21030 ft 413 kts 42°
2026-04-12 11:32 33.05701 -85.18056 20448 ft 411 kts 46°
2026-04-12 11:32 33.07605 -85.15520 19869 ft 409 kts 46°
2026-04-12 11:32 33.09510 -85.13005 19292 ft 407 kts 46°
2026-04-12 11:33 33.11416 -85.10514 18716 ft 405 kts 46°
2026-04-12 11:33 33.13318 -85.08036 18143 ft 403 kts 46°
2026-04-12 11:33 33.15202 -85.05585 17658 ft 399 kts 46°
2026-04-12 11:33 33.17068 -85.03161 17204 ft 394 kts 46°
2026-04-12 11:34 33.18898 -85.00778 16515 ft 382 kts 46°
2026-04-12 11:34 33.20693 -84.98458 15448 ft 379 kts 46°
2026-04-12 11:34 33.22477 -84.96140 14857 ft 375 kts 47°
2026-04-12 11:34 33.24195 -84.93900 14427 ft 362 kts 47°
2026-04-12 11:35 33.25877 -84.91703 13911 ft 363 kts 47°
2026-04-12 11:35 33.27581 -84.89477 13381 ft 364 kts 47°
2026-04-12 11:35 33.29297 -84.87235 12839 ft 365 kts 47°
2026-04-12 11:35 33.31010 -84.84998 12352 ft 365 kts 47°
2026-04-12 11:36 33.32718 -84.82782 12181 ft 360 kts 46°
2026-04-12 11:36 33.34483 -84.80691 12116 ft 353 kts 43°
2026-04-12 11:36 33.36255 -84.78704 12049 ft 344 kts 43°
2026-04-12 11:36 33.37971 -84.76761 12013 ft 338 kts 44°
2026-04-12 11:37 33.39706 -84.74766 12015 ft 353 kts 44°
2026-04-12 11:37 33.41496 -84.72692 12012 ft 361 kts 44°
2026-04-12 11:37 33.43305 -84.70586 12009 ft 365 kts 44°
2026-04-12 11:37 33.45127 -84.68460 12005 ft 366 kts 44°
2026-04-12 11:38 33.46945 -84.66336 12001 ft 359 kts 44°
2026-04-12 11:38 33.48663 -84.64327 11995 ft 341 kts 44°
2026-04-12 11:38 33.50339 -84.62368 11983 ft 321 kts 44°
2026-04-12 11:38 33.51844 -84.60608 11956 ft 293 kts 45°
2026-04-12 11:39 33.53004 -84.58746 11952 ft 269 kts 66°
2026-04-12 11:39 33.53483 -84.56636 11990 ft 259 kts 82°
2026-04-12 11:39 33.53665 -84.54507 11920 ft 255 kts 86°
2026-04-12 11:39 33.53715 -84.52378 11601 ft 257 kts 90°
2026-04-12 11:40 33.53704 -84.50218 10973 ft 258 kts 91°
2026-04-12 11:40 33.53695 -84.48081 10469 ft 254 kts 91°
2026-04-12 11:40 33.53691 -84.45986 9969 ft 250 kts 91°
2026-04-12 11:40 33.53687 -84.43910 9469 ft 246 kts 91°
2026-04-12 11:41 33.53686 -84.41890 8974 ft 244 kts 91°
2026-04-12 11:41 33.53690 -84.39868 8469 ft 241 kts 91°
2026-04-12 11:41 33.53691 -84.37871 7968 ft 238 kts 91°
2026-04-12 11:41 33.53691 -84.35893 7466 ft 236 kts 91°
2026-04-12 11:42 33.53690 -84.33935 6966 ft 235 kts 91°
2026-04-12 11:42 33.53690 -84.31976 6463 ft 234 kts 91°
2026-04-12 11:42 33.53690 -84.30039 5992 ft 231 kts 91°
2026-04-12 11:43 33.53701 -84.26178 5003 ft 232 kts 91°
2026-04-12 11:43 33.53703 -84.24245 4510 ft 229 kts 91°
2026-04-12 11:43 33.53763 -84.22375 4217 ft 221 kts 82°
2026-04-12 11:43 33.54471 -84.20822 4031 ft 212 kts 42°
2026-04-12 11:44 33.55783 -84.20235 3872 ft 199 kts
2026-04-12 11:44 33.57146 -84.20281 3615 ft 194 kts 356°
2026-04-12 11:44 33.58484 -84.20408 3243 ft 196 kts 354°
2026-04-12 11:44 33.59838 -84.20542 3049 ft 196 kts 352°
2026-04-12 11:45 33.61088 -84.21104 2967 ft 192 kts 323°
2026-04-12 11:45 33.61974 -84.22264 3000 ft 188 kts 303°
2026-04-12 11:45 33.62574 -84.23648 3009 ft 187 kts 289°
2026-04-12 11:45 33.62891 -84.25153 3022 ft 186 kts 277°
2026-04-12 11:46 33.63039 -84.26692 3021 ft 185 kts 274°
2026-04-12 11:46 33.63141 -84.28229 3011 ft 184 kts 271°
2026-04-12 11:46 33.63175 -84.29764 2951 ft 185 kts 268°
2026-04-12 11:46 33.63182 -84.31323 2743 ft 187 kts 268°
2026-04-12 11:47 33.63184 -84.32870 2482 ft 182 kts 268°
2026-04-12 11:47 33.63184 -84.34325 2241 ft 168 kts 267°
2026-04-12 11:47 33.63184 -84.35673 2040 ft 158 kts 267°
2026-04-12 11:47 33.63180 -84.36975 1838 ft 155 kts 267°
2026-04-12 11:48 33.63186 -84.38280 1634 ft 157 kts 266°
2026-04-12 11:48 33.63182 -84.39559 1431 ft 154 kts 267°
2026-04-12 11:48 33.63182 -84.40853 1214 ft 152 kts 267°
2026-04-12 11:48 33.63184 -84.42094 1047 ft 149 kts 267°
2026-04-12 11:49 33.63182 -84.43206 1035 ft 102 kts 269°
2026-04-12 11:49 33.63182 -84.43769 1034 ft 40 kts 269°
2026-04-12 11:49 33.63186 -84.43996 1034 ft 25 kts 278°
2026-04-12 11:49 33.63238 -84.44184 1034 ft 20 kts 300°
2026-04-12 11:50 33.63301 -84.44276 1034 ft 13 kts
2026-04-12 11:50 33.63337 -84.44253 1034 ft 4 kts 39°
2026-04-12 11:50 33.63364 -84.44227 1034 ft 9 kts 39°
2026-04-12 11:50 33.63443 -84.44198 1034 ft 14 kts 360°
2026-04-12 11:51 33.63535 -84.44196 1034 ft 13 kts
2026-04-12 11:51 33.63622 -84.44195 1034 ft 12 kts
2026-04-12 11:51 33.63666 -84.44110 1034 ft 19 kts 90°
2026-04-12 11:51 33.63664 -84.43945 1034 ft 19 kts 90°
2026-04-12 11:52 33.63664 -84.43786 1034 ft 18 kts 90°
2026-04-12 11:52 33.63664 -84.43635 1034 ft 18 kts 89°
2026-04-12 11:52 33.63664 -84.43493 1034 ft 17 kts 89°
2026-04-12 11:52 33.63664 -84.43358 1034 ft 16 kts 91°
2026-04-12 11:53 33.63664 -84.43232 1034 ft 15 kts 90°
2026-04-12 11:53 33.63664 -84.43113 1034 ft 14 kts 90°
2026-04-12 11:53 33.63664 -84.43001 1034 ft 13 kts 90°
2026-04-12 11:53 33.63665 -84.42895 1034 ft 12 kts 90°
2026-04-12 11:54 33.63664 -84.42792 1034 ft 12 kts 94°
2026-04-12 11:54 33.63657 -84.42694 1034 ft 12 kts 94°
2026-04-12 11:54 33.63656 -84.42600 1034 ft 11 kts 90°
2026-04-12 11:54 33.63655 -84.42500 1034 ft 12 kts 90°
2026-04-12 11:55 33.63656 -84.42398 1034 ft 12 kts 90°
2026-04-12 11:55 33.63656 -84.42300 1034 ft 11 kts 87°
2026-04-12 11:55 33.63701 -84.42237 1034 ft 12 kts
2026-04-12 11:55 33.63791 -84.42237 1034 ft 14 kts 359°
2026-04-12 11:56 33.63901 -84.42238 1034 ft 17 kts 355°
2026-04-12 11:56 33.64024 -84.42243 1034 ft 17 kts 359°
2026-04-12 11:56 33.64139 -84.42242 1034 ft 13 kts
2026-04-12 11:56 33.64197 -84.42305 1034 ft 13 kts 279°
2026-04-12 11:57 33.64210 -84.42406 1034 ft 12 kts 315°
2026-04-12 11:57 33.64291 -84.42420 1034 ft 12 kts
2026-04-12 11:57 33.64353 -84.42457 1034 ft 11 kts 274°
2026-04-12 11:57 33.64353 -84.42514 1034 ft 0 kts 270°
2026-04-12 11:58 33.64353 -84.42515 1034 ft 0 kts 270°